Hourly Data Report for June 20, 2012

All times are specified in Local Standard Time (LST). Add 1 hour to adjust for Daylight Saving Time where and when it is observed.

MONCTON INTL A
NEW BRUNSWICK

46°06'44.000" N
64°40'43.000" W
70.70 m
8103201
71705
YQM

Download Data

Hourly Data (June 2012)
Hourly Data Report for June 20, 2012
Temp Definition
°C
Dew Point Temp Definition
°C
Rel Hum Definition
%
Wind Dir Definition
10's deg

Wind Spd Definition
km/h
Visibility Definition
km
Stn Press Definition
kPa
Hmdx Definition


Wind Chill Definition


Weather Definition


TIME
00:00 Legend Double Dagger 13.9 12.0 88 20 17 10.0 100.57     LegendNANA
01:00 Legend Double Dagger 13.4 11.6 89 20 14 10.0 100.49     LegendNANA
02:00 Legend Double Dagger 12.9 11.3 90 21 14 10.0 100.42     Mainly Clear
03:00 Legend Double Dagger 12.0 11.4 96 18 11 10.0 100.38     LegendNANA
04:00 Legend Double Dagger 12.1 11.5 96 20 13 10.0 100.33     LegendNANA
05:00 Legend Double Dagger 13.4 12.3 93 21 16 10.0 100.36     Cloudy
06:00 Legend Double Dagger 14.2 12.9 92 22 23 10.0 100.35     LegendNANA
07:00 Legend Double Dagger 14.9 13.3 90 23 22 10.0 100.36     LegendNANA
08:00 Legend Double Dagger 17.4 14.2 81 22 27 10.0 100.29     Mostly Cloudy
09:00 Legend Double Dagger 19.1 15.4 79 23 21 10.0 100.24     LegendNANA
10:00 Legend Double Dagger 21.1 16.4 74 21 18 10.0 100.12 26   LegendNANA
11:00 Legend Double Dagger 24.2 18.0 68 24 20 10.0 100.04 30   Mostly Cloudy
12:00 Legend Double Dagger 26.5 18.8 62 22 21 10.0 100.00 33   LegendNANA
13:00 Legend Double Dagger 28.4 18.1 53 24 32 10.0 99.89 34   LegendNANA
14:00 Legend Double Dagger 28.4 19.0 56 25 18 10.0 99.79 35   Mostly Cloudy
15:00 Legend Double Dagger 29.4 19.6 55 23 21 10.0 99.73 37   LegendNANA
16:00 Legend Double Dagger 28.3 19.2 57 22 20 10.0 99.67 35   LegendNANA
17:00 Legend Double Dagger 28.9 17.0 48 31 14 10.0 99.63 34   Cloudy
18:00 Legend Double Dagger 27.9 13.3 40 31 30 10.0 99.65 31   LegendNANA
19:00 Legend Double Dagger 26.1 13.1 44 32 16 10.0 99.71 29   LegendNANA
20:00 Legend Double Dagger 21.9 16.3 70 34 8 10.0 99.76 27   Mostly Cloudy
21:00 Legend Double Dagger 20.9 13.0 60 26 8 10.0 99.79     LegendNANA
22:00 Legend Double Dagger 18.5 13.6 73 34 10 10.0 99.83     LegendNANA
23:00 Legend Double Dagger 15.9 13.6 86 36 12 10.0 99.86     Clear

Notes on Data Quality.

Legend

  • E = Estimated
  • M = Missing
  • NA = Not Available
  • ‡ = Partner data that is not subject to review by the National Climate Archives
Date modified: